Location: Axtheid
(49.6213°N, 11.8205°E)
Time: 12:51:04
(UTC+00:00)

CZ-2C R/B - Pass Details

Date: 24 January 2021
Orbit: 704 x 908 km, 98.1° (Epoch: 25 February)

Event Time Altitude Azimuth Distance (km) Brightness Sun altitude
Rises 16:28:25 0° 137° (SE) 3,340 6.1 -5.7°
Reaches altitude 10° 16:30:52 10° 129° (SE) 2,442 5.3 -6.0°
Maximum altitude 16:35:48 37° 64° (ENE) 1,330 3.8 -6.8°
Drops below altitude 10° 16:40:57 10° 359° (N) 2,561 5.5 -7.6°
Sets 16:43:34 0° 352° (N) 3,524 6.3 -8.0°
